Regional Weather Roundup
Issued by NWS San Diego, CA

Home | Current Version | Previous Version | Text Only | Print | Product List | Glossary On
Versions: 1 2 3 4 5 6 7 8 9 10 11 12 13 14 15 16 17 18 19 20 21 22 23 24 25 26 27 28
000
ASUS46 KSGX 201811
RWRSGX

SAN DIEGO HOURLY WEATHER ROUNDUP
NATIONAL WEATHER SERVICE SAN DIEGO CA
1000 AM PST FRI JAN 20 2017

NOTE: "FAIR" INDICATES FEW OR NO CLOUDS BELOW 12,000 FEET WITH NO
SIGNIFICANT WEATHER AND/OR OBSTRUCTIONS TO VISIBILITY.

CAZ042-043-060-061-PZZ750-775-201900-

GREATER SAN DIEGO AREA

CITY           SKY/WX    TMP DP  RH WIND       PRES   REMARKS
SAN DIEGO AP   RAIN      56  50  80 S12G23    29.83S
NATIONAL CITY    N/A     55  52  91 S12       29.81S
CHULA VISTA      N/A     54  53  97 SW2       29.73S
IMPERIAL BEACH LGT RAIN  56  50  80 S10G20    29.82F
BROWN FIELD    LGT RAIN  53  51  93 S12       29.81S FOG
MIRAMAR MCAS   LGT RAIN  56  52  86 S12       29.79F
MONTGOMERY FLD LGT RAIN  53  48  83 S12       29.80S

$$

NORTH SAN DIEGO COUNTY

CITY           SKY/WX    TMP DP  RH WIND       PRES   REMARKS
CAMP PENDLETON LGT RAIN  54  52  93 S14G25    29.75F FOG
OCEANSIDE AP   LGT RAIN  56  52  86 S16G23    29.76S
OCEANSIDE HBR    N/A     55  53  91 E3        29.78F
VISTA            N/A     52  47  83 SE1       29.75F
CARLSBAD       LGT RAIN  54  52  93 S10       29.76F
DEL MAR          N/A     53  52  95 S3        29.81S
LA JOLLA SCRIP   N/A     54  52  94 SE14      29.78F
FALLBROOK        N/A     51  51 100 S1        29.75F
ESCONDIDO        N/A     51  50  95 S3        29.80F
SAN MARCOS       N/A     52  48  86 S6        29.80F
POWAY            N/A     51  49  92 S2        29.82F

$$

EAST SAN DIEGO COUNTY

CITY           SKY/WX    TMP DP  RH WIND       PRES   REMARKS
RAMONA         LGT RAIN  49  49 100 S14       29.77F FOG
SANTEE LAKES     N/A     53  51  95 SE2       29.80F
LA MESA          N/A     51  50  96 CALM      29.73F
JAMUL            N/A     49  48  94 CALM      29.81F
DESCANSO N       N/A     41  39  94 SW3       29.75F
CAMPO            N/A     45  44  97 SW20      29.75F

$$

ORANGE COUNTY AND THE LOS ANGELES BASIN

CITY           SKY/WX    TMP DP  RH WIND       PRES   REMARKS
JOHN WAYNE AP  LGT RAIN  54  52  93 S9        29.70F
LAGUNA BEACH     N/A     54  53  97 SE5       29.68F
LAKE FOREST FR   N/A     50  47  91 SE2       29.63F
HUNTINGTON BCH   N/A     54  53  96 SE5       29.70F
LOS ALAMITOS   LGT RAIN  54  53  97 SE10      29.67F FOG
FULLERTON      LGT RAIN  54  52  93 SE9       29.69F FOG
LONG BEACH     LGT RAIN  55  52  89 SE8       29.66F
L.A. AP        LGT RAIN  54  52  93 SE13G21   29.65F FOG
L.A. DOWNTOWN  LGT RAIN  54  52  93 VRB6      29.66F FOG

$$

THE INLAND EMPIRE

CITY           SKY/WX    TMP DP  RH WIND       PRES   REMARKS
CORONA         CLOUDY    51  49  92 MISG      29.71F
CHINO          LGT RAIN  50  50 100 VRB5      29.71F FOG
ONTARIO        LGT RAIN  49  48  97 CALM      29.68F FOG
SAN BERNARDINO RAIN      50  46  87 E6        29.73F
RIVERSIDE AP   NOT AVBL
MORENO VALLEY    N/A     47  47 100 S3        27.84F
MARCH ARB      LGT RAIN  48  48 100 SE12      29.71F
HORSETHIEF CYN   N/A     48  44  86 E3        29.74F
PERRIS           N/A     47  47  99 S5        29.73F
HEMET EAST       N/A     46  42  88 CALM      29.80F
FRENCH VALLEY  NOT AVBL
TEMECULA         N/A     50  49  98 SW9       29.79F

$$

SAN BERNARDINO AND RIVERSIDE COUNTY MOUNTAINS

CITY           SKY/WX    TMP DP  RH WIND       PRES   REMARKS
BIG BEAR AP    SNOW      30  28  93 W14G28    29.58F VSB 1/4 WCI  20
ANGELUS OAKS     N/A     31  29  92 CALM      29.66F
PINE COVE        N/A     31  31 100 CALM      29.78F

$$

SOUTHERN DESERT INCLUDING THE COACHELLA VALLEY

CITY           SKY/WX    TMP DP  RH WIND       PRES   REMARKS
PALM SPRINGS   LGT RAIN  56  46  69 E6        29.68F
PALM DESERT      N/A     55  47  74 CALM      26.35S
THERMAL        PTSUNNY   61  46  57 N7        29.66F
BLYTHE         CLOUDY    55  43  63 S13       29.73F
IMPERIAL AP    CLOUDY    58  46  64 SE5       29.73F
EL CENTRO NAS  CLOUDY    61  42  49 SE3       29.74F
YUMA AZ        DRIZZLE   57  44  62 S10       29.76F
MEXICALI       CLOUDY    57  45  62 SE7       29.75

$$

UPPER DESERT

CITY           SKY/WX    TMP DP  RH WIND       PRES   REMARKS
VICTORVILLE AP CLOUDY    45  36  70 S38G46    29.55S
HESPERIA         N/A     45  39  79 W12       29.70F
PALMDALE       CLOUDY    49  38  65 SE6       29.53F
LANCASTER      RAIN      47  40  76 SW20G28   29.54F
EDWARDS AFB    PTSUNNY   49  38  65 SW17G25   29.52F
DAGGETT        CLOUDY    47  43  86 E10       29.57F
29 PALMS N     PTSUNNY   51  36  56 S20       29.67F
NEEDLES        LGT RAIN  54  42  64 S12       29.69F

$$

REGIONAL REPORTS

CITY           SKY/WX    TMP DP  RH WIND       PRES   REMARKS
SANTA BARBARA  HVY RAIN  52  52 100 SW6       29.53S VSB 1
SANDBERG       SNOW      37  37 100 S30G51    29.47F VSB<1/4 WCI  24
LAS VEGAS NV   LGT RAIN  47  39  74 SE10      29.58F
PHOENIX AZ     CLOUDY    52  45  77 SE8       29.81S
TIJUANA        LGT RAIN  52  48  87 S6        29.83F FOG
ENSENADA NW      N/A     54  32  43 S10       29.85F

$$

OFFSHORE ISLANDS

CITY           SKY/WX    TMP DP  RH WIND       PRES   REMARKS
CATALINA ARPT  RAIN      50  48  93 SW26G43   29.63F FOG
SAN CLEMENTE I LGT RAIN  56  53  90 S33G39    29.69F
SAN NICOLAS IS LGT RAIN  55  54  96 S23G32    29.59F FOG

$$

MARINE AND OFFSHORE BUOY REPORTS

STATION/POSITION SKY/WX   TEMP    WIND        PRES    VSBY  SWELL
                          AIR SEA DIR/SP/G                  HT/PER/DIR
                          (F)     (DEG/KT/KT) (MB)    (MI)  (FT/S/D)
TANNER BANKS               59 59  190/ 23/ 27 1005.1F        10/270/16
S CLEMENTE BASIN           58 61  190/ 17/ 23 1007.5F        11/280/13
SAN NICOLAS IS.               59                N/A          10/300/15
SO. S. ROSA ISLA           56 57  220/ 23/ 31  999.9F        11/280/16
W. S. BARBARA CH           55 58  250/ 16/ 19  999.4R        13/280/15
M. S. BARBARA CH                  190/ 25/ 33 1000.0F
S. MONICA BASIN            57 59  180/ 23/ 29 1002.0F         8/260/15
S PEDRO CHANNEL               60                N/A           7/270/14
CMP PENDLETON NS              59                N/A           3/250/13
OCEANSIDE OFFSHR              60                N/A           3/260/13
TORREY PINES OTR              60                N/A           5/290/13
POINT LOMA SOUTH              60                N/A           7/280/13

$$





USA.gov is the U.S. government's official web portal to all federal, state and local government web resources and services.